Time,TemperatureF,DewpointF,PressureIn,WindDirection,WindDirectionDegrees,WindSpeedMPH,WindSpeedGustMPH,Humidity,HourlyPrecipIn,Conditions,Clouds,dailyrainin,SoftwareType,DateUTC
2013-05-18 00:01:00,48.8,47.5,30.27,SSW,202,0.0,2.3,93,0.00,,,0.00,Rainwise IP-100,2013-05-18 04:01:00,
2013-05-18 00:06:00,48.6,47.5,30.27,SSW,202,0.0,0.0,93,0.00,,,0.00,Rainwise IP-100,2013-05-18 04:06:00,
2013-05-18 00:11:00,48.5,47.5,30.27,SSW,202,0.0,2.6,94,0.00,,,0.00,Rainwise IP-100,2013-05-18 04:11:00,
2013-05-18 00:16:00,48.7,47.5,30.27,WSW,247,1.9,2.8,94,0.00,,,0.00,Rainwise IP-100,2013-05-18 04:16:00,
2013-05-18 00:21:00,48.9,47.5,30.27,West,270,0.0,3.5,94,0.00,,,0.00,Rainwise IP-100,2013-05-18 04:21:00,
2013-05-18 00:26:00,48.7,47.5,30.27,West,270,0.0,2.1,94,0.00,,,0.00,Rainwise IP-100,2013-05-18 04:26:00,
2013-05-18 00:31:00,48.6,47.5,30.27,West,270,0.0,1.2,93,0.00,,,0.00,Rainwise IP-100,2013-05-18 04:31:00,
2013-05-18 00:36:00,48.6,47.5,30.27,West,270,0.0,0.0,93,0.00,,,0.00,Rainwise IP-100,2013-05-18 04:36:00,
2013-05-18 00:41:00,48.6,47.5,30.27,West,270,1.2,1.2,93,0.00,,,0.00,Rainwise IP-100,2013-05-18 04:41:00,
2013-05-18 00:46:00,48.7,47.5,30.27,West,270,1.6,2.3,93,0.00,,,0.00,Rainwise IP-100,2013-05-18 04:46:00,
2013-05-18 00:51:00,48.4,47.0,30.27,WSW,247,1.2,2.6,93,0.00,,,0.00,Rainwise IP-100,2013-05-18 04:51:00,
2013-05-18 00:56:00,47.9,47.0,30.27,WSW,247,1.6,2.3,93,0.00,,,0.00,Rainwise IP-100,2013-05-18 04:56:00,
2013-05-18 01:01:00,47.9,47.0,30.28,WSW,247,0.0,2.6,93,0.00,,,0.00,Rainwise IP-100,2013-05-18 05:01:00,
2013-05-18 01:06:00,47.9,47.0,30.28,WSW,247,0.0,0.0,93,0.00,,,0.00,Rainwise IP-100,2013-05-18 05:06:00,
2013-05-18 01:11:00,47.8,47.0,30.27,WSW,247,0.0,0.0,93,0.00,,,0.00,Rainwise IP-100,2013-05-18 05:11:00,
2013-05-18 01:16:00,47.8,47.0,30.27,WSW,247,0.0,1.2,94,0.00,,,0.00,Rainwise IP-100,2013-05-18 05:16:00,
2013-05-18 01:21:00,47.6,46.0,30.27,WSW,247,0.0,2.1,94,0.00,,,0.00,Rainwise IP-100,2013-05-18 05:21:00,
2013-05-18 01:26:00,47.2,45.0,30.27,WSW,247,0.0,1.2,94,0.00,,,0.00,Rainwise IP-100,2013-05-18 05:26:00,
2013-05-18 01:31:00,46.9,45.0,30.27,WSW,247,0.0,2.1,94,0.00,,,0.00,Rainwise IP-100,2013-05-18 05:31:00,
2013-05-18 01:36:00,46.6,45.0,30.27,WSW,247,0.0,1.2,95,0.00,,,0.00,Rainwise IP-100,2013-05-18 05:36:00,
2013-05-18 01:41:00,46.4,44.0,30.27,WSW,247,1.2,1.6,95,0.00,,,0.00,Rainwise IP-100,2013-05-18 05:41:00,
2013-05-18 01:46:00,46.5,45.0,30.27,WSW,247,0.0,1.9,95,0.00,,,0.00,Rainwise IP-100,2013-05-18 05:46:00,
2013-05-18 01:51:00,46.5,45.0,30.27,WSW,247,0.0,1.4,95,0.00,,,0.00,Rainwise IP-100,2013-05-18 05:51:00,
2013-05-18 01:56:00,46.2,44.0,30.28,WSW,247,0.0,1.6,95,0.00,,,0.00,Rainwise IP-100,2013-05-18 05:56:00,
2013-05-18 02:01:00,45.9,45.0,30.27,WSW,247,0.0,0.0,96,0.00,,,0.00,Rainwise IP-100,2013-05-18 06:01:00,
2013-05-18 02:06:00,46.0,45.0,30.28,WSW,247,0.0,1.6,96,0.00,,,0.00,Rainwise IP-100,2013-05-18 06:06:00,
2013-05-18 02:11:00,46.3,45.0,30.27,WSW,247,0.0,2.1,96,0.00,,,0.00,Rainwise IP-100,2013-05-18 06:11:00,
2013-05-18 02:16:00,46.4,45.0,30.27,WSW,247,1.2,1.6,97,0.00,,,0.00,Rainwise IP-100,2013-05-18 06:16:00,
2013-05-18 02:21:00,46.6,46.0,30.27,WSW,247,0.0,1.6,96,0.00,,,0.00,Rainwise IP-100,2013-05-18 06:21:00,
2013-05-18 02:26:00,46.5,46.0,30.27,WSW,247,0.0,1.6,96,0.00,,,0.00,Rainwise IP-100,2013-05-18 06:26:00,
2013-05-18 02:31:00,46.4,45.0,30.27,WSW,247,0.0,0.0,96,0.00,,,0.00,Rainwise IP-100,2013-05-18 06:31:00,
2013-05-18 02:36:00,46.2,45.0,30.27,WSW,247,0.0,1.2,96,0.00,,,0.00,Rainwise IP-100,2013-05-18 06:36:00,
2013-05-18 02:41:00,46.1,45.0,30.28,WSW,247,0.0,1.6,96,0.00,,,0.00,Rainwise IP-100,2013-05-18 06:41:00,
2013-05-18 02:46:00,45.9,45.0,30.27,WSW,247,0.0,1.6,97,0.00,,,0.00,Rainwise IP-100,2013-05-18 06:46:00,
2013-05-18 02:51:00,45.6,45.0,30.27,WSW,247,0.0,1.2,97,0.00,,,0.00,Rainwise IP-100,2013-05-18 06:51:00,
2013-05-18 02:56:00,45.4,44.0,30.27,WSW,247,0.0,0.0,97,0.00,,,0.00,Rainwise IP-100,2013-05-18 06:56:00,
2013-05-18 03:01:00,45.3,44.0,30.27,WSW,247,0.0,0.0,97,0.00,,,0.00,Rainwise IP-100,2013-05-18 07:01:00,
2013-05-18 03:06:00,45.2,44.0,30.27,WSW,247,0.0,1.2,97,0.00,,,0.00,Rainwise IP-100,2013-05-18 07:06:00,
2013-05-18 03:11:00,45.1,44.0,30.28,WSW,247,0.0,1.4,97,0.00,,,0.00,Rainwise IP-100,2013-05-18 07:11:00,
2013-05-18 03:16:00,44.9,44.0,30.27,WSW,247,0.0,1.2,97,0.00,,,0.00,Rainwise IP-100,2013-05-18 07:16:00,
2013-05-18 03:21:00,44.8,44.0,30.27,WSW,247,0.0,0.0,97,0.00,,,0.00,Rainwise IP-100,2013-05-18 07:21:00,
2013-05-18 03:26:00,44.7,44.0,30.27,WSW,247,0.0,0.0,97,0.00,,,0.00,Rainwise IP-100,2013-05-18 07:26:00,
2013-05-18 03:31:00,44.6,44.0,30.27,WSW,247,0.0,1.2,97,0.00,,,0.00,Rainwise IP-100,2013-05-18 07:31:00,
2013-05-18 03:36:00,44.5,44.0,30.28,WSW,247,0.0,0.0,97,0.00,,,0.00,Rainwise IP-100,2013-05-18 07:36:00,
2013-05-18 03:41:00,44.4,43.0,30.27,WSW,247,0.0,0.0,97,0.00,,,0.00,Rainwise IP-100,2013-05-18 07:41:00,
2013-05-18 03:46:00,44.6,44.0,30.28,WSW,247,0.0,1.2,97,0.00,,,0.00,Rainwise IP-100,2013-05-18 07:46:00,
2013-05-18 03:51:00,44.8,44.0,30.28,WSW,247,0.0,0.0,98,0.00,,,0.00,Rainwise IP-100,2013-05-18 07:51:00,
2013-05-18 03:56:00,45.1,44.0,30.28,WSW,247,0.0,1.6,98,0.00,,,0.00,Rainwise IP-100,2013-05-18 07:56:00,
2013-05-18 04:01:00,45.4,44.0,30.28,WSW,247,1.6,1.9,98,0.00,,,0.00,Rainwise IP-100,2013-05-18 08:01:00,
2013-05-18 04:06:00,45.5,45.0,30.28,WSW,247,1.9,2.1,98,0.00,,,0.00,Rainwise IP-100,2013-05-18 08:06:00,
2013-05-18 04:11:00,45.5,45.0,30.28,WSW,247,0.0,2.1,98,0.00,,,0.00,Rainwise IP-100,2013-05-18 08:11:00,
2013-05-18 04:16:00,45.6,45.0,30.28,WSW,247,1.6,2.1,98,0.00,,,0.00,Rainwise IP-100,2013-05-18 08:16:00,
2013-05-18 04:21:00,45.7,45.0,30.28,WSW,247,1.9,1.9,98,0.00,,,0.00,Rainwise IP-100,2013-05-18 08:21:00,
2013-05-18 04:26:00,45.8,45.0,30.29,WSW,247,1.6,3.5,98,0.00,,,0.00,Rainwise IP-100,2013-05-18 08:26:00,
2013-05-18 04:31:00,45.7,45.0,30.29,WSW,247,2.1,3.7,98,0.00,,,0.00,Rainwise IP-100,2013-05-18 08:31:00,
2013-05-18 04:36:00,45.9,45.0,30.29,WSW,247,1.4,3.0,98,0.00,,,0.00,Rainwise IP-100,2013-05-18 08:36:00,
2013-05-18 04:41:00,46.0,45.0,30.29,WSW,247,0.0,2.6,98,0.00,,,0.00,Rainwise IP-100,2013-05-18 08:41:00,
2013-05-18 04:46:00,46.1,45.0,30.29,WSW,247,1.4,2.3,98,0.00,,,0.00,Rainwise IP-100,2013-05-18 08:46:00,
2013-05-18 04:51:00,46.2,45.0,30.29,WSW,247,1.4,2.1,97,0.00,,,0.00,Rainwise IP-100,2013-05-18 08:51:00,
2013-05-18 04:56:00,46.2,45.0,30.30,WSW,247,1.4,2.6,97,0.00,,,0.00,Rainwise IP-100,2013-05-18 08:56:00,
2013-05-18 05:01:00,46.0,45.0,30.30,WSW,247,1.6,1.9,97,0.00,,,0.00,Rainwise IP-100,2013-05-18 09:01:00,
2013-05-18 05:06:00,45.8,45.0,30.30,WSW,247,0.0,1.9,97,0.00,,,0.00,Rainwise IP-100,2013-05-18 09:06:00,
2013-05-18 05:11:00,45.7,45.0,30.30,WSW,247,0.0,1.6,97,0.00,,,0.00,Rainwise IP-100,2013-05-18 09:11:00,
2013-05-18 05:16:00,45.6,45.0,30.30,WSW,247,0.0,1.6,97,0.00,,,0.00,Rainwise IP-100,2013-05-18 09:16:00,
2013-05-18 05:21:00,45.4,44.0,30.30,WSW,247,0.0,1.4,98,0.00,,,0.00,Rainwise IP-100,2013-05-18 09:21:00,
2013-05-18 05:26:00,45.3,44.0,30.30,WSW,247,1.4,0.0,98,0.00,,,0.00,Rainwise IP-100,2013-05-18 09:26:00,
2013-05-18 05:31:00,45.1,44.0,30.30,WSW,247,0.0,1.9,98,0.00,,,0.00,Rainwise IP-100,2013-05-18 09:31:00,
2013-05-18 05:36:00,45.0,44.0,30.31,WSW,247,1.2,2.1,98,0.00,,,0.00,Rainwise IP-100,2013-05-18 09:36:00,
2013-05-18 05:41:00,44.8,44.0,30.31,WSW,247,0.0,1.9,98,0.00,,,0.00,Rainwise IP-100,2013-05-18 09:41:00,
2013-05-18 05:46:00,44.8,44.0,30.31,WSW,247,0.0,1.2,98,0.00,,,0.00,Rainwise IP-100,2013-05-18 09:46:00,
2013-05-18 05:51:00,44.8,44.0,30.31,WSW,247,0.0,0.0,98,0.00,,,0.00,Rainwise IP-100,2013-05-18 09:51:00,
2013-05-18 05:56:00,45.2,44.0,30.31,WSW,247,0.0,1.6,98,0.00,,,0.00,Rainwise IP-100,2013-05-18 09:56:00,
2013-05-18 06:01:00,45.6,46.0,30.31,WSW,247,0.0,1.6,99,0.00,,,0.00,Rainwise IP-100,2013-05-18 10:01:00,
2013-05-18 06:06:00,45.6,46.0,30.32,WSW,247,0.0,1.2,99,0.00,,,0.00,Rainwise IP-100,2013-05-18 10:06:00,
2013-05-18 06:11:00,45.6,46.0,30.32,WSW,247,0.0,0.0,99,0.00,,,0.00,Rainwise IP-100,2013-05-18 10:11:00,
2013-05-18 06:16:00,45.8,46.0,30.32,WSW,247,0.0,0.0,99,0.00,,,0.00,Rainwise IP-100,2013-05-18 10:16:00,
2013-05-18 06:21:00,46.1,46.0,30.32,WSW,247,0.0,1.6,99,0.00,,,0.00,Rainwise IP-100,2013-05-18 10:21:00,
2013-05-18 06:26:00,46.4,46.0,30.32,WSW,247,0.0,1.4,99,0.00,,,0.00,Rainwise IP-100,2013-05-18 10:26:00,
2013-05-18 06:31:00,46.7,47.0,30.32,WSW,247,0.0,1.4,99,0.00,,,0.00,Rainwise IP-100,2013-05-18 10:31:00,
2013-05-18 06:36:00,47.4,47.5,30.32,North,360,1.9,1.9,99,0.00,,,0.00,Rainwise IP-100,2013-05-18 10:36:00,
2013-05-18 06:41:00,48.5,49.0,30.33,SSW,202,0.0,3.0,99,0.00,,,0.00,Rainwise IP-100,2013-05-18 10:41:00,
2013-05-18 06:46:00,49.5,50.0,30.33,North,360,2.6,3.3,99,0.00,,,0.00,Rainwise IP-100,2013-05-18 10:46:00,
2013-05-18 06:51:00,50.2,49.0,30.34,WNW,292,3.0,3.5,98,0.00,,,0.00,Rainwise IP-100,2013-05-18 10:51:00,
2013-05-18 06:56:00,51.0,50.5,30.34,WNW,292,1.6,5.6,97,0.00,,,0.00,Rainwise IP-100,2013-05-18 10:56:00,
2013-05-18 07:01:00,51.7,50.5,30.34,WNW,292,2.6,3.0,95,0.00,,,0.00,Rainwise IP-100,2013-05-18 11:01:00,
2013-05-18 07:06:00,52.3,50.0,30.34,WSW,247,2.6,4.4,93,0.00,,,0.00,Rainwise IP-100,2013-05-18 11:06:00,
2013-05-18 07:11:00,52.9,50.0,30.34,NW,315,1.9,5.8,91,0.00,,,0.00,Rainwise IP-100,2013-05-18 11:11:00,
2013-05-18 07:16:00,53.5,50.5,30.34,WNW,292,4.0,6.5,90,0.00,,,0.00,Rainwise IP-100,2013-05-18 11:16:00,
2013-05-18 07:21:00,54.0,50.5,30.34,WNW,292,5.1,8.2,88,0.00,,,0.00,Rainwise IP-100,2013-05-18 11:21:00,
2013-05-18 07:26:00,54.5,50.5,30.34,WNW,292,8.6,8.6,86,0.00,,,0.00,Rainwise IP-100,2013-05-18 11:26:00,
2013-05-18 07:31:00,54.7,50.0,30.34,WNW,292,5.6,9.1,84,0.00,,,0.00,Rainwise IP-100,2013-05-18 11:31:00,
2013-05-18 07:36:00,55.0,50.5,30.35,West,270,5.6,7.7,84,0.00,,,0.00,Rainwise IP-100,2013-05-18 11:36:00,
2013-05-18 07:41:00,55.3,50.5,30.34,WNW,292,1.9,8.4,83,0.00,,,0.00,Rainwise IP-100,2013-05-18 11:41:00,
2013-05-18 07:46:00,55.6,50.5,30.35,WNW,292,1.9,7.0,83,0.00,,,0.00,Rainwise IP-100,2013-05-18 11:46:00,
2013-05-18 07:51:00,55.9,50.5,30.35,WNW,292,1.9,5.6,83,0.00,,,0.00,Rainwise IP-100,2013-05-18 11:51:00,
2013-05-18 07:56:00,56.3,51.0,30.35,WNW,292,3.3,6.3,82,0.00,,,0.00,Rainwise IP-100,2013-05-18 11:56:00,
2013-05-18 08:01:00,56.6,50.5,30.35,WNW,292,4.0,7.7,81,0.00,,,0.00,Rainwise IP-100,2013-05-18 12:01:00,
2013-05-18 08:06:00,57.0,51.0,30.35,NNW,337,5.4,6.8,80,0.00,,,0.00,Rainwise IP-100,2013-05-18 12:06:00,
2013-05-18 08:11:00,57.7,50.5,30.35,WNW,292,10.7,10.7,78,0.00,,,0.00,Rainwise IP-100,2013-05-18 12:11:00,
2013-05-18 08:16:00,58.0,50.5,30.35,WNW,292,4.7,12.8,76,0.00,,,0.00,Rainwise IP-100,2013-05-18 12:16:00,
2013-05-18 08:21:00,58.1,50.0,30.35,NNW,337,1.9,11.0,74,0.00,,,0.00,Rainwise IP-100,2013-05-18 12:21:00,
2013-05-18 08:26:00,58.4,50.0,30.35,WSW,247,1.9,11.7,73,0.00,,,0.00,Rainwise IP-100,2013-05-18 12:26:00,
2013-05-18 08:31:00,58.8,50.0,30.35,NNW,337,3.0,8.2,72,0.00,,,0.00,Rainwise IP-100,2013-05-18 12:31:00,
2013-05-18 08:36:00,59.1,50.0,30.35,WSW,247,6.8,9.8,71,0.00,,,0.00,Rainwise IP-100,2013-05-18 12:36:00,
2013-05-18 08:41:00,59.3,49.0,30.35,SSW,202,4.4,8.6,69,0.00,,,0.00,Rainwise IP-100,2013-05-18 12:41:00,
2013-05-18 08:46:00,59.2,48.0,30.35,WSW,247,5.6,9.6,67,0.00,,,0.00,Rainwise IP-100,2013-05-18 12:46:00,
2013-05-18 08:51:00,59.2,48.0,30.36,WNW,292,5.6,10.0,67,0.00,,,0.00,Rainwise IP-100,2013-05-18 12:51:00,
2013-05-18 08:56:00,59.5,48.0,30.36,WSW,247,4.0,7.7,67,0.00,,,0.00,Rainwise IP-100,2013-05-18 12:56:00,
2013-05-18 09:01:00,59.8,48.0,30.36,WNW,292,6.3,11.2,66,0.00,,,0.00,Rainwise IP-100,2013-05-18 13:01:00,
2013-05-18 09:06:00,59.8,48.0,30.36,WNW,292,5.8,10.3,65,0.00,,,0.00,Rainwise IP-100,2013-05-18 13:06:00,
2013-05-18 09:11:00,60.0,48.0,30.36,WNW,292,4.7,11.2,65,0.00,,,0.00,Rainwise IP-100,2013-05-18 13:11:00,
2013-05-18 09:16:00,60.3,48.0,30.36,WNW,292,3.3,9.6,64,0.00,,,0.00,Rainwise IP-100,2013-05-18 13:16:00,
2013-05-18 09:21:00,60.5,47.5,30.36,WNW,292,5.1,11.7,63,0.00,,,0.00,Rainwise IP-100,2013-05-18 13:21:00,
2013-05-18 09:26:00,60.5,47.5,30.36,WNW,292,7.5,12.4,62,0.00,,,0.00,Rainwise IP-100,2013-05-18 13:26:00,
2013-05-18 09:31:00,60.6,47.5,30.36,WNW,292,2.1,10.0,62,0.00,,,0.00,Rainwise IP-100,2013-05-18 13:31:00,
2013-05-18 09:36:00,61.0,48.0,30.36,SSW,202,2.6,10.0,63,0.00,,,0.00,Rainwise IP-100,2013-05-18 13:36:00,
2013-05-18 09:41:00,60.9,49.0,30.36,WNW,292,4.9,8.9,64,0.00,,,0.00,Rainwise IP-100,2013-05-18 13:41:00,
2013-05-18 09:46:00,60.7,48.0,30.37,WSW,247,1.2,7.2,65,0.00,,,0.00,Rainwise IP-100,2013-05-18 13:46:00,
2013-05-18 09:51:00,61.3,50.5,30.36,WNW,292,2.8,8.4,67,0.00,,,0.00,Rainwise IP-100,2013-05-18 13:51:00,
2013-05-18 09:52:00,61.5,50.5,30.36,WNW,292,4.0,8.4,67,0.00,,,0.00,Rainwise IP-100,2013-05-18 13:52:00,
2013-05-18 09:57:00,61.8,51.0,30.36,West,270,5.1,6.8,68,0.00,,,0.00,Rainwise IP-100,2013-05-18 13:57:00,
2013-05-18 10:02:00,61.9,51.0,30.36,WSW,247,4.4,7.7,68,0.00,,,0.00,Rainwise IP-100,2013-05-18 14:02:00,
2013-05-18 10:07:00,62.1,50.5,30.36,NW,315,0.0,7.9,66,0.00,,,0.00,Rainwise IP-100,2013-05-18 14:07:00,
2013-05-18 10:12:00,62.6,51.0,30.36,ESE,112,3.3,5.4,66,0.00,,,0.00,Rainwise IP-100,2013-05-18 14:12:00,
2013-05-18 10:17:00,63.4,52.0,30.36,SSW,202,2.6,6.8,66,0.00,,,0.00,Rainwise IP-100,2013-05-18 14:17:00,
2013-05-18 10:22:00,63.9,52.0,30.36,SSW,202,0.0,7.2,65,0.00,,,0.00,Rainwise IP-100,2013-05-18 14:22:00,
2013-05-18 10:27:00,63.6,51.0,30.36,ESE,112,1.2,9.6,64,0.00,,,0.00,Rainwise IP-100,2013-05-18 14:27:00,
2013-05-18 10:32:00,63.8,52.0,30.36,SSW,202,1.2,8.6,65,0.00,,,0.00,Rainwise IP-100,2013-05-18 14:32:00,
2013-05-18 10:37:00,63.5,51.0,30.36,WNW,292,7.2,9.1,64,0.00,,,0.00,Rainwise IP-100,2013-05-18 14:37:00,
2013-05-18 10:42:00,62.6,50.0,30.36,West,270,6.5,7.5,64,0.00,,,0.00,Rainwise IP-100,2013-05-18 14:42:00,
2013-05-18 10:47:00,62.6,50.0,30.36,WNW,292,2.8,8.4,64,0.00,,,0.00,Rainwise IP-100,2013-05-18 14:47:00,
2013-05-18 10:52:00,63.3,50.5,30.36,WSW,247,6.5,7.2,63,0.00,,,0.00,Rainwise IP-100,2013-05-18 14:52:00,
2013-05-18 10:57:00,63.4,50.5,30.36,West,270,4.4,9.8,62,0.00,,,0.00,Rainwise IP-100,2013-05-18 14:57:00,
2013-05-18 11:02:00,63.1,50.0,30.36,WNW,292,4.9,7.5,62,0.00,,,0.00,Rainwise IP-100,2013-05-18 15:02:00,
2013-05-18 11:07:00,63.2,50.0,30.36,WNW,292,4.2,8.4,62,0.00,,,0.00,Rainwise IP-100,2013-05-18 15:07:00,
2013-05-18 11:12:00,63.2,49.0,30.36,WSW,247,5.6,7.5,61,0.00,,,0.00,Rainwise IP-100,2013-05-18 15:12:00,
2013-05-18 11:17:00,63.3,50.5,30.36,WSW,247,1.4,8.4,62,0.00,,,0.00,Rainwise IP-100,2013-05-18 15:17:00,
2013-05-18 11:22:00,63.9,50.5,30.35,WSW,247,0.0,7.5,61,0.00,,,0.00,Rainwise IP-100,2013-05-18 15:22:00,
2013-05-18 11:27:00,64.4,50.5,30.36,WSW,247,2.3,6.8,61,0.00,,,0.00,Rainwise IP-100,2013-05-18 15:27:00,
2013-05-18 11:32:00,65.1,51.0,30.35,WNW,292,4.2,5.8,61,0.00,,,0.00,Rainwise IP-100,2013-05-18 15:32:00,
2013-05-18 11:37:00,65.4,51.0,30.35,WSW,247,3.0,8.6,60,0.00,,,0.00,Rainwise IP-100,2013-05-18 15:37:00,
2013-05-18 11:42:00,65.5,50.5,30.35,SSW,202,2.1,8.4,59,0.00,,,0.00,Rainwise IP-100,2013-05-18 15:42:00,
2013-05-18 11:47:00,65.7,50.5,30.35,SSW,202,3.5,7.2,59,0.00,,,0.00,Rainwise IP-100,2013-05-18 15:47:00,
2013-05-18 11:52:00,65.8,51.0,30.35,WNW,292,6.1,6.3,59,0.00,,,0.00,Rainwise IP-100,2013-05-18 15:52:00,
2013-05-18 11:57:00,65.5,50.5,30.34,WSW,247,3.5,9.6,59,0.00,,,0.00,Rainwise IP-100,2013-05-18 15:57:00,
2013-05-18 12:02:00,64.9,50.5,30.34,WSW,247,6.8,9.6,60,0.00,,,0.00,Rainwise IP-100,2013-05-18 16:02:00,
2013-05-18 12:07:00,64.6,50.5,30.34,WNW,292,5.8,11.9,60,0.00,,,0.00,Rainwise IP-100,2013-05-18 16:07:00,
2013-05-18 12:12:00,64.4,50.0,30.34,West,270,10.7,10.7,59,0.00,,,0.00,Rainwise IP-100,2013-05-18 16:12:00,
2013-05-18 12:17:00,64.5,49.0,30.34,WSW,247,8.6,10.7,58,0.00,,,0.00,Rainwise IP-100,2013-05-18 16:17:00,
2013-05-18 12:22:00,64.4,49.0,30.34,WSW,247,5.1,14.2,58,0.00,,,0.00,Rainwise IP-100,2013-05-18 16:22:00,
2013-05-18 12:27:00,63.9,49.0,30.34,WSW,247,6.1,13.8,58,0.00,,,0.00,Rainwise IP-100,2013-05-18 16:27:00,
2013-05-18 12:32:00,63.9,49.0,30.34,WSW,247,3.7,11.9,59,0.00,,,0.00,Rainwise IP-100,2013-05-18 16:32:00,
2013-05-18 12:37:00,63.7,49.0,30.34,WSW,247,5.6,14.2,60,0.00,,,0.00,Rainwise IP-100,2013-05-18 16:37:00,
2013-05-18 12:42:00,63.4,49.0,30.34,WNW,292,6.8,14.0,60,0.00,,,0.00,Rainwise IP-100,2013-05-18 16:42:00,
2013-05-18 12:47:00,63.3,48.0,30.34,WSW,247,4.2,14.0,58,0.00,,,0.00,Rainwise IP-100,2013-05-18 16:47:00,
2013-05-18 12:52:00,62.9,47.5,30.34,WNW,292,7.2,10.7,57,0.00,,,0.00,Rainwise IP-100,2013-05-18 16:52:00,
2013-05-18 12:57:00,62.5,47.0,30.34,WSW,247,4.9,12.4,57,0.00,,,0.00,Rainwise IP-100,2013-05-18 16:57:00,
2013-05-18 12:58:00,62.4,47.0,30.34,WNW,292,2.6,12.4,57,0.00,,,0.00,Rainwise IP-100,2013-05-18 16:58:00,
2013-05-18 13:03:00,62.1,47.5,30.34,West,270,7.0,9.8,59,0.00,,,0.00,Rainwise IP-100,2013-05-18 17:03:00,
2013-05-18 13:08:00,62.1,48.0,30.34,West,270,4.4,9.8,60,0.00,,,0.00,Rainwise IP-100,2013-05-18 17:08:00,
2013-05-18 13:13:00,62.1,48.0,30.34,West,270,4.4,9.1,60,0.00,,,0.00,Rainwise IP-100,2013-05-18 17:13:00,
2013-05-18 13:18:00,61.9,48.0,30.34,SSW,202,7.7,10.7,60,0.00,,,0.00,Rainwise IP-100,2013-05-18 17:18:00,
2013-05-18 13:23:00,62.3,48.0,30.34,WSW,247,8.9,13.5,60,0.00,,,0.00,Rainwise IP-100,2013-05-18 17:23:00,
2013-05-18 13:28:00,62.9,48.0,30.34,WNW,292,4.0,15.2,58,0.00,,,0.00,Rainwise IP-100,2013-05-18 17:28:00,
2013-05-18 13:33:00,63.5,48.0,30.34,WNW,292,6.3,8.4,57,0.00,,,0.00,Rainwise IP-100,2013-05-18 17:33:00,
2013-05-18 13:38:00,64.0,48.0,30.34,SE,135,0.0,15.9,57,0.00,,,0.00,Rainwise IP-100,2013-05-18 17:38:00,
2013-05-18 13:43:00,63.8,48.0,30.34,West,270,2.8,13.1,56,0.00,,,0.00,Rainwise IP-100,2013-05-18 17:43:00,
2013-05-18 13:48:00,63.1,47.5,30.34,WNW,292,6.5,11.7,57,0.00,,,0.00,Rainwise IP-100,2013-05-18 17:48:00,
2013-05-18 13:53:00,63.0,48.0,30.34,West,270,11.2,13.5,58,0.00,,,0.00,Rainwise IP-100,2013-05-18 17:53:00,
2013-05-18 13:58:00,62.9,48.0,30.35,WSW,247,2.3,11.9,58,0.00,,,0.00,Rainwise IP-100,2013-05-18 17:58:00,
2013-05-18 14:03:00,62.7,47.0,30.34,SW,225,5.4,12.1,56,0.00,,,0.00,Rainwise IP-100,2013-05-18 18:03:00,
2013-05-18 14:08:00,63.0,47.0,30.34,NNW,337,5.6,14.5,55,0.00,,,0.00,Rainwise IP-100,2013-05-18 18:08:00,
2013-05-18 14:13:00,63.5,47.0,30.34,WSW,247,5.8,10.5,55,0.00,,,0.00,Rainwise IP-100,2013-05-18 18:13:00,
2013-05-18 14:18:00,63.8,47.0,30.34,West,270,7.9,11.7,54,0.00,,,0.00,Rainwise IP-100,2013-05-18 18:18:00,
2013-05-18 14:23:00,63.9,47.0,30.34,WNW,292,5.6,9.8,54,0.00,,,0.00,Rainwise IP-100,2013-05-18 18:23:00,
2013-05-18 14:28:00,63.8,48.0,30.34,West,270,4.7,11.7,56,0.00,,,0.00,Rainwise IP-100,2013-05-18 18:28:00,
2013-05-18 14:33:00,63.3,48.0,30.34,WNW,292,10.0,14.0,58,0.00,,,0.00,Rainwise IP-100,2013-05-18 18:33:00,
2013-05-18 14:38:00,62.8,48.0,30.34,WNW,292,12.6,15.4,58,0.00,,,0.00,Rainwise IP-100,2013-05-18 18:38:00,
2013-05-18 14:43:00,62.4,47.5,30.34,WNW,292,4.7,14.0,58,0.00,,,0.00,Rainwise IP-100,2013-05-18 18:43:00,
2013-05-18 14:48:00,62.0,47.5,30.34,WSW,247,9.6,15.9,59,0.00,,,0.00,Rainwise IP-100,2013-05-18 18:48:00,
2013-05-18 14:53:00,61.5,48.0,30.34,WSW,247,4.4,14.0,61,0.00,,,0.00,Rainwise IP-100,2013-05-18 18:53:00,
2013-05-18 14:58:00,61.3,48.0,30.34,West,270,5.8,13.5,62,0.00,,,0.00,Rainwise IP-100,2013-05-18 18:58:00,
2013-05-18 15:03:00,61.5,49.0,30.33,WNW,292,5.6,15.2,63,0.00,,,0.00,Rainwise IP-100,2013-05-18 19:03:00,
2013-05-18 15:08:00,61.4,49.0,30.34,WNW,292,5.1,17.0,63,0.00,,,0.00,Rainwise IP-100,2013-05-18 19:08:00,
2013-05-18 15:13:00,61.6,49.0,30.34,SW,225,3.5,12.8,63,0.00,,,0.00,Rainwise IP-100,2013-05-18 19:13:00,
2013-05-18 15:18:00,61.9,50.0,30.34,West,270,8.2,11.9,64,0.00,,,0.00,Rainwise IP-100,2013-05-18 19:18:00,
2013-05-18 15:23:00,61.9,50.0,30.34,SSE,157,3.5,14.5,64,0.00,,,0.00,Rainwise IP-100,2013-05-18 19:23:00,
2013-05-18 15:28:00,61.8,50.0,30.33,WNW,292,2.6,9.8,64,0.00,,,0.00,Rainwise IP-100,2013-05-18 19:28:00,
2013-05-18 15:33:00,61.8,50.0,30.34,WNW,292,3.0,11.4,65,0.00,,,0.00,Rainwise IP-100,2013-05-18 19:33:00,
2013-05-18 15:38:00,61.9,50.0,30.33,WNW,292,9.8,12.6,65,0.00,,,0.00,Rainwise IP-100,2013-05-18 19:38:00,
2013-05-18 15:43:00,61.8,50.0,30.34,WSW,247,10.5,14.9,65,0.00,,,0.00,Rainwise IP-100,2013-05-18 19:43:00,
2013-05-18 15:48:00,61.4,50.0,30.34,WNW,292,5.8,14.9,65,0.00,,,0.00,Rainwise IP-100,2013-05-18 19:48:00,
2013-05-18 15:53:00,61.3,50.0,30.34,WSW,247,4.7,11.4,65,0.00,,,0.00,Rainwise IP-100,2013-05-18 19:53:00,
2013-05-18 15:58:00,61.5,50.0,30.34,WNW,292,7.0,13.1,65,0.00,,,0.00,Rainwise IP-100,2013-05-18 19:58:00,
2013-05-18 16:03:00,61.6,49.0,30.34,NNW,337,3.0,12.6,64,0.00,,,0.00,Rainwise IP-100,2013-05-18 20:03:00,
2013-05-18 16:08:00,61.5,49.0,30.34,WSW,247,6.5,12.4,64,0.00,,,0.00,Rainwise IP-100,2013-05-18 20:08:00,
2013-05-18 16:13:00,61.5,50.0,30.34,WNW,292,2.1,11.7,65,0.00,,,0.00,Rainwise IP-100,2013-05-18 20:13:00,
2013-05-18 16:18:00,61.7,50.0,30.34,WNW,292,2.8,9.6,65,0.00,,,0.00,Rainwise IP-100,2013-05-18 20:18:00,
2013-05-18 16:23:00,61.7,50.0,30.34,WNW,292,7.7,11.4,66,0.00,,,0.00,Rainwise IP-100,2013-05-18 20:23:00,
2013-05-18 16:28:00,61.8,51.0,30.34,WSW,247,5.8,11.4,67,0.00,,,0.00,Rainwise IP-100,2013-05-18 20:28:00,
2013-05-18 16:33:00,61.9,51.0,30.34,WSW,247,0.0,10.0,67,0.00,,,0.00,Rainwise IP-100,2013-05-18 20:33:00,
2013-05-18 16:38:00,61.8,51.0,30.34,WSW,247,6.5,15.2,67,0.00,,,0.00,Rainwise IP-100,2013-05-18 20:38:00,
2013-05-18 16:43:00,61.7,50.5,30.34,WNW,292,4.4,10.5,67,0.00,,,0.00,Rainwise IP-100,2013-05-18 20:43:00,
2013-05-18 16:48:00,62.0,51.0,30.35,SSW,202,1.9,10.3,67,0.00,,,0.00,Rainwise IP-100,2013-05-18 20:48:00,
2013-05-18 16:53:00,62.3,52.0,30.34,ESE,112,4.9,6.3,68,0.00,,,0.00,Rainwise IP-100,2013-05-18 20:53:00,
2013-05-18 16:58:00,62.3,52.0,30.34,WSW,247,2.3,7.2,68,0.00,,,0.00,Rainwise IP-100,2013-05-18 20:58:00,
2013-05-18 17:03:00,62.2,51.0,30.35,SSE,157,3.3,7.0,68,0.00,,,0.00,Rainwise IP-100,2013-05-18 21:03:00,
2013-05-18 17:08:00,62.4,52.0,30.34,SSE,157,1.9,4.2,68,0.00,,,0.00,Rainwise IP-100,2013-05-18 21:08:00,
2013-05-18 17:13:00,62.7,52.0,30.35,South,180,1.6,8.2,68,0.00,,,0.00,Rainwise IP-100,2013-05-18 21:13:00,
2013-05-18 17:18:00,63.0,52.0,30.34,SSE,157,4.0,4.7,67,0.00,,,0.00,Rainwise IP-100,2013-05-18 21:18:00,
2013-05-18 17:23:00,63.3,52.0,30.34,SSE,157,1.9,5.8,66,0.00,,,0.00,Rainwise IP-100,2013-05-18 21:23:00,
2013-05-18 17:28:00,63.0,51.0,30.34,WSW,247,3.0,6.8,66,0.00,,,0.00,Rainwise IP-100,2013-05-18 21:28:00,
2013-05-18 17:33:00,62.4,51.0,30.34,SW,225,1.4,7.0,67,0.00,,,0.00,Rainwise IP-100,2013-05-18 21:33:00,
2013-05-18 17:38:00,62.0,51.0,30.34,SW,225,2.6,8.4,68,0.00,,,0.00,Rainwise IP-100,2013-05-18 21:38:00,
2013-05-18 17:43:00,61.6,51.0,30.35,SW,225,2.8,9.6,69,0.00,,,0.00,Rainwise IP-100,2013-05-18 21:43:00,
2013-05-18 17:48:00,61.2,51.0,30.35,SSW,202,1.2,7.7,70,0.00,,,0.00,Rainwise IP-100,2013-05-18 21:48:00,
2013-05-18 17:53:00,61.1,51.0,30.34,East,90,0.0,7.7,70,0.00,,,0.00,Rainwise IP-100,2013-05-18 21:53:00,
2013-05-18 17:58:00,60.8,51.0,30.35,SSE,157,2.1,7.2,71,0.00,,,0.00,Rainwise IP-100,2013-05-18 21:58:00,
2013-05-18 18:03:00,60.5,51.0,30.35,SSE,157,2.1,6.1,71,0.00,,,0.00,Rainwise IP-100,2013-05-18 22:03:00,
2013-05-18 18:08:00,60.3,51.0,30.35,ESE,112,2.3,7.0,72,0.00,,,0.00,Rainwise IP-100,2013-05-18 22:08:00,
2013-05-18 18:13:00,60.2,51.0,30.35,SSE,157,1.6,8.9,73,0.00,,,0.00,Rainwise IP-100,2013-05-18 22:13:00,
2013-05-18 18:18:00,60.4,51.0,30.35,ESE,112,2.1,7.5,72,0.00,,,0.00,Rainwise IP-100,2013-05-18 22:18:00,
2013-05-18 18:23:00,60.6,51.0,30.35,SSW,202,3.5,8.2,72,0.00,,,0.00,Rainwise IP-100,2013-05-18 22:23:00,
2013-05-18 18:28:00,60.4,51.0,30.35,ESE,112,3.3,8.2,72,0.00,,,0.00,Rainwise IP-100,2013-05-18 22:28:00,
2013-05-18 18:33:00,60.2,50.5,30.36,South,180,1.9,9.3,72,0.00,,,0.00,Rainwise IP-100,2013-05-18 22:33:00,
2013-05-18 18:38:00,60.5,52.0,30.35,WNW,292,1.4,6.1,73,0.00,,,0.00,Rainwise IP-100,2013-05-18 22:38:00,
2013-05-18 18:43:00,60.9,52.0,30.35,WSW,247,0.0,8.4,72,0.00,,,0.00,Rainwise IP-100,2013-05-18 22:43:00,
2013-05-18 18:48:00,61.0,52.0,30.35,SW,225,0.0,4.2,72,0.00,,,0.00,Rainwise IP-100,2013-05-18 22:48:00,
2013-05-18 18:53:00,61.1,52.0,30.34,SSE,157,2.6,8.6,72,0.00,,,0.00,Rainwise IP-100,2013-05-18 22:53:00,
2013-05-18 18:58:00,60.8,52.0,30.36,ESE,112,0.0,5.6,72,0.00,,,0.00,Rainwise IP-100,2013-05-18 22:58:00,
2013-05-18 19:03:00,60.1,51.0,30.35,WSW,247,7.0,7.0,74,0.00,,,0.00,Rainwise IP-100,2013-05-18 23:03:00,
2013-05-18 19:08:00,59.5,51.0,30.36,WSW,247,1.9,11.0,75,0.00,,,0.00,Rainwise IP-100,2013-05-18 23:08:00,
2013-05-18 19:13:00,58.9,51.0,30.36,SW,225,8.9,8.9,76,0.00,,,0.00,Rainwise IP-100,2013-05-18 23:13:00,
2013-05-18 19:18:00,58.4,51.0,30.36,SSW,202,1.6,8.9,77,0.00,,,0.00,Rainwise IP-100,2013-05-18 23:18:00,
2013-05-18 19:23:00,58.1,51.0,30.35,WSW,247,1.4,6.3,78,0.00,,,0.00,Rainwise IP-100,2013-05-18 23:23:00,
2013-05-18 19:28:00,57.9,51.0,30.36,WNW,292,1.6,4.9,78,0.00,,,0.00,Rainwise IP-100,2013-05-18 23:28:00,
2013-05-18 19:33:00,57.8,52.0,30.36,WSW,247,1.6,7.2,79,0.00,,,0.00,Rainwise IP-100,2013-05-18 23:33:00,
2013-05-18 19:38:00,57.5,51.0,30.36,WNW,292,1.2,5.8,80,0.00,,,0.00,Rainwise IP-100,2013-05-18 23:38:00,
2013-05-18 19:43:00,57.3,52.0,30.36,SSW,202,2.3,6.3,81,0.00,,,0.00,Rainwise IP-100,2013-05-18 23:43:00,
2013-05-18 19:48:00,57.2,52.0,30.36,SSW,202,0.0,7.0,82,0.00,,,0.00,Rainwise IP-100,2013-05-18 23:48:00,
2013-05-18 19:53:00,57.1,52.0,30.36,SSW,202,2.3,8.4,82,0.00,,,0.00,Rainwise IP-100,2013-05-18 23:53:00,
2013-05-18 19:58:00,56.9,52.0,30.36,WSW,247,3.0,8.2,83,0.00,,,0.00,Rainwise IP-100,2013-05-18 23:58:00,
2013-05-18 20:03:00,56.8,52.0,30.36,WSW,247,1.4,6.5,84,0.00,,,0.00,Rainwise IP-100,2013-05-19 00:03:00,
2013-05-18 20:08:00,56.7,52.0,30.36,WNW,292,4.0,7.7,84,0.00,,,0.00,Rainwise IP-100,2013-05-19 00:08:00,
2013-05-18 20:13:00,56.6,52.0,30.36,SSW,202,5.8,7.9,85,0.00,,,0.00,Rainwise IP-100,2013-05-19 00:13:00,
2013-05-18 20:18:00,56.5,52.0,30.36,WNW,292,4.4,6.3,85,0.00,,,0.00,Rainwise IP-100,2013-05-19 00:18:00,
2013-05-18 20:23:00,56.3,53.0,30.36,WSW,247,6.1,7.5,86,0.00,,,0.00,Rainwise IP-100,2013-05-19 00:23:00,
2013-05-18 20:28:00,56.3,53.0,30.35,WSW,247,1.6,7.7,86,0.00,,,0.00,Rainwise IP-100,2013-05-19 00:28:00,
2013-05-18 20:33:00,56.2,52.0,30.35,WSW,247,2.1,6.1,87,0.00,,,0.00,Rainwise IP-100,2013-05-19 00:33:00,
2013-05-18 20:38:00,56.1,52.0,30.36,WNW,292,2.8,5.4,87,0.00,,,0.00,Rainwise IP-100,2013-05-19 00:38:00,
2013-05-18 20:43:00,56.0,53.0,30.36,SSW,202,1.2,5.8,88,0.00,,,0.00,Rainwise IP-100,2013-05-19 00:43:00,
2013-05-18 20:48:00,56.0,53.0,30.36,WNW,292,1.9,10.3,88,0.00,,,0.00,Rainwise IP-100,2013-05-19 00:48:00,
2013-05-18 20:53:00,56.0,53.0,30.36,WNW,292,0.0,7.5,89,0.00,,,0.00,Rainwise IP-100,2013-05-19 00:53:00,
2013-05-18 20:58:00,55.9,53.0,30.36,SW,225,4.2,7.2,89,0.00,,,0.00,Rainwise IP-100,2013-05-19 00:58:00,
2013-05-18 21:03:00,55.8,53.0,30.36,West,270,2.3,8.2,89,0.00,,,0.00,Rainwise IP-100,2013-05-19 01:03:00,
2013-05-18 21:08:00,55.8,53.0,30.36,WSW,247,4.4,9.3,89,0.00,,,0.00,Rainwise IP-100,2013-05-19 01:08:00,
2013-05-18 21:13:00,55.9,53.0,30.36,WSW,247,2.8,8.6,89,0.00,,,0.00,Rainwise IP-100,2013-05-19 01:13:00,
2013-05-18 21:18:00,56.0,53.0,30.37,WSW,247,3.0,8.9,89,0.00,,,0.00,Rainwise IP-100,2013-05-19 01:18:00,
2013-05-18 21:23:00,56.1,53.0,30.37,WNW,292,9.6,9.6,89,0.00,,,0.00,Rainwise IP-100,2013-05-19 01:23:00,
2013-05-18 21:28:00,56.1,53.0,30.36,WNW,292,3.0,9.6,89,0.00,,,0.00,Rainwise IP-100,2013-05-19 01:28:00,
2013-05-18 21:33:00,56.2,53.0,30.37,West,270,7.7,8.2,89,0.00,,,0.00,Rainwise IP-100,2013-05-19 01:33:00,
2013-05-18 21:38:00,56.3,53.5,30.36,WNW,292,4.7,8.6,90,0.00,,,0.00,Rainwise IP-100,2013-05-19 01:38:00,
2013-05-18 21:43:00,56.4,53.5,30.36,WNW,292,4.4,8.2,90,0.00,,,0.00,Rainwise IP-100,2013-05-19 01:43:00,
2013-05-18 21:48:00,56.6,53.5,30.36,WNW,292,6.5,12.8,90,0.00,,,0.00,Rainwise IP-100,2013-05-19 01:48:00,
2013-05-18 21:53:00,56.6,53.5,30.36,WSW,247,6.3,10.7,90,0.00,,,0.00,Rainwise IP-100,2013-05-19 01:53:00,
2013-05-18 21:58:00,56.7,53.5,30.36,WNW,292,3.5,11.0,90,0.00,,,0.00,Rainwise IP-100,2013-05-19 01:58:00,
2013-05-18 22:03:00,56.7,53.5,30.37,WSW,247,10.7,13.1,90,0.00,,,0.00,Rainwise IP-100,2013-05-19 02:03:00,
2013-05-18 22:08:00,56.6,53.5,30.36,WNW,292,2.8,10.7,90,0.00,,,0.00,Rainwise IP-100,2013-05-19 02:08:00,
2013-05-18 22:13:00,56.5,53.5,30.36,WNW,292,6.3,6.8,90,0.00,,,0.00,Rainwise IP-100,2013-05-19 02:13:00,
2013-05-18 22:18:00,56.4,54.0,30.36,WSW,247,3.7,9.8,91,0.00,,,0.00,Rainwise IP-100,2013-05-19 02:18:00,
2013-05-18 22:23:00,56.3,54.0,30.36,WSW,247,7.0,10.5,91,0.00,,,0.00,Rainwise IP-100,2013-05-19 02:23:00,
2013-05-18 22:28:00,56.2,53.5,30.36,West,270,3.7,9.8,91,0.00,,,0.00,Rainwise IP-100,2013-05-19 02:28:00,
2013-05-18 22:33:00,56.2,53.5,30.36,West,270,2.3,11.7,92,0.00,,,0.00,Rainwise IP-100,2013-05-19 02:33:00,
2013-05-18 22:38:00,56.1,53.5,30.35,WNW,292,7.0,14.7,92,0.00,,,0.00,Rainwise IP-100,2013-05-19 02:38:00,
2013-05-18 22:43:00,56.1,53.5,30.36,WNW,292,5.1,15.6,92,0.00,,,0.00,Rainwise IP-100,2013-05-19 02:43:00,
2013-05-18 22:48:00,56.0,53.5,30.36,West,270,4.4,8.6,92,0.00,,,0.00,Rainwise IP-100,2013-05-19 02:48:00,
2013-05-18 22:53:00,55.8,53.5,30.35,West,270,5.4,10.0,92,0.00,,,0.00,Rainwise IP-100,2013-05-19 02:53:00,
2013-05-18 22:58:00,55.7,54.0,30.35,West,270,2.8,7.0,93,0.00,,,0.00,Rainwise IP-100,2013-05-19 02:58:00,
2013-05-18 23:03:00,55.6,54.0,30.35,WNW,292,3.3,10.3,93,0.00,,,0.00,Rainwise IP-100,2013-05-19 03:03:00,
2013-05-18 23:08:00,55.5,54.0,30.36,NW,315,3.0,8.9,93,0.00,,,0.00,Rainwise IP-100,2013-05-19 03:08:00,
2013-05-18 23:13:00,55.5,54.0,30.36,WNW,292,2.3,9.3,93,0.00,,,0.00,Rainwise IP-100,2013-05-19 03:13:00,
2013-05-18 23:18:00,55.4,53.5,30.36,West,270,5.8,8.2,93,0.00,,,0.00,Rainwise IP-100,2013-05-19 03:18:00,
2013-05-18 23:23:00,55.3,53.5,30.36,WSW,247,6.3,9.8,93,0.00,,,0.00,Rainwise IP-100,2013-05-19 03:23:00,
2013-05-18 23:28:00,55.2,53.5,30.36,WSW,247,3.5,8.2,94,0.00,,,0.00,Rainwise IP-100,2013-05-19 03:28:00,
2013-05-18 23:33:00,55.1,53.5,30.36,West,270,2.3,7.5,94,0.00,,,0.00,Rainwise IP-100,2013-05-19 03:33:00,
2013-05-18 23:38:00,55.1,53.5,30.36,WNW,292,3.5,6.5,94,0.00,,,0.00,Rainwise IP-100,2013-05-19 03:38:00,
2013-05-18 23:43:00,55.0,53.5,30.36,WNW,292,3.7,6.1,94,0.00,,,0.00,Rainwise IP-100,2013-05-19 03:43:00,
2013-05-18 23:48:00,55.0,53.5,30.36,WNW,292,3.5,9.3,94,0.00,,,0.00,Rainwise IP-100,2013-05-19 03:48:00,
2013-05-18 23:53:00,54.9,53.5,30.36,WNW,292,1.9,4.7,94,0.00,,,0.00,Rainwise IP-100,2013-05-19 03:53:00,
2013-05-18 23:55:00,54.9,53.5,30.36,WSW,247,1.9,4.7,94,0.00,,,0.00,Rainwise IP-100,2013-05-19 03:55:00,